Moffett Field, CA

9:18 AM PDT on September 29, 2016 (GMT -0700)
Moffett Federal Air Field

Weather History for KNUQ - September, 2013

Change the Weather History Date:

Thursday, September 26, 2013

  Actual Average Record
Temperature  
Mean Temperature 65 °F 67 °F  
Max Temperature 76 °F 77 °F 95 °F (1999)
Min Temperature 53 °F 57 °F 42 °F (1948)
Degree Days  
Heating Degree Days 0    
Month to date heating degree days 5  
Since 1 July heating degree days 9  
Cooling Degree Days 0    
Month to date cooling degree days 100  
Year to date cooling degree days 459  
Growing Degree Days 14 (Base 50)    
Moisture  
Dew Point 41 °F    
Average Humidity 44    
Maximum Humidity 66    
Minimum Humidity 21    
Precipitation  
Precipitation 0.00 in 0.01 in 0.36 in (1986)
Month to date precipitation 0.50 0.14  
Year to date precipitation 2.32 9.80  
Since 1 July precipitation 0.50  
Sea Level Pressure  
Sea Level Pressure 29.93 in    
Wind  
Wind Speed 5 mph (NW)    
Max Wind Speed 15 mph    
Max Gust Speed 21 mph    
Visibility 10 miles    
Events      
T = Trace of Precipitation, MM = Missing Value Source: NWS Daily Summary

Daily Weather History Graph

Daily Weather History Graph

Search for Another Location

Airport or City:

Trip Planner

Search our weather history database for the weather conditions in past years. The results will help you decide how hot, cold, wet, or windy it might be!

Date:

Astronomy

Sep. 26, 2013 Rise Set
Actual Time 6:59 AM PDT 6:58 PM PDT
Civil Twilight 6:33 AM PDT 7:24 PM PDT
Nautical Twilight 6:03 AM PDT 7:54 PM PDT
Astronomical Twilight 5:32 AM PDT 8:25 PM PDT
Moon No Moon Rise 1:49 PM PDT (9/26)
Length of Visible Light 12h 50m
Length of Day
11h 58m
Waning Gibbous, 53% of the Moon is Illuminated
Sep 26
Waning Gibbous
Sep 26
Last Quarter
Oct 4
New
Oct 11
First Quarter
Oct 18
Full

Hourly Weather History & Observations

Time (PDT) Temp. Dew Point Humidity Pressure Visibility Wind Dir Wind Speed Gust Speed Precip Events Conditions
12:56 AM 57.0 °F 44.1 °F 62% 29.86 in 10.0 mi West 4.6 mph - N/A   Clear
1:56 AM 55.9 °F 44.1 °F 64% 29.87 in 10.0 mi West 3.5 mph - N/A   Clear
2:56 AM 54.0 °F 43.0 °F 66% 29.88 in 10.0 mi Calm Calm - N/A   Clear
3:56 AM 54.0 °F 43.0 °F 66% 29.88 in 10.0 mi Calm Calm - N/A   Clear
4:56 AM 53.1 °F 43.0 °F 69% 29.88 in 10.0 mi Calm Calm - N/A   Clear
5:56 AM 54.0 °F 43.0 °F 66% 29.89 in 10.0 mi Calm Calm - N/A   Clear
6:56 AM 54.0 °F 42.1 °F 64% 29.91 in 10.0 mi West 3.5 mph - N/A   Clear
7:56 AM 55.0 °F 41.0 °F 59% 29.92 in 10.0 mi Calm Calm - N/A   Clear
8:56 AM 61.0 °F 39.0 °F 44% 29.94 in 10.0 mi NNW 5.8 mph - N/A   Clear
9:56 AM 63.0 °F 42.1 °F 46% 29.96 in 10.0 mi NNW 8.1 mph - N/A   Clear
10:56 AM 66.0 °F 39.0 °F 37% 29.96 in 10.0 mi NNW 11.5 mph - N/A   Clear
11:56 AM 68.0 °F 37.9 °F 33% 29.95 in 10.0 mi NNW 9.2 mph 17.3 mph N/A   Clear
12:56 PM 70.0 °F 35.1 °F 28% 29.94 in 10.0 mi Variable 5.8 mph - N/A   Clear
1:56 PM 73.0 °F 34.0 °F 24% 29.93 in 10.0 mi NNW 11.5 mph - N/A   Clear
2:56 PM 73.9 °F 35.1 °F 24% 29.91 in 10.0 mi NW 12.7 mph - N/A   Clear
3:56 PM 75.0 °F 33.1 °F 22% 29.90 in 10.0 mi NW 8.1 mph - N/A   Clear
4:56 PM 75.0 °F 37.9 °F 26% 29.89 in 10.0 mi NW 9.2 mph - N/A   Clear
5:56 PM 72.0 °F 37.0 °F 28% 29.90 in 10.0 mi NNW 9.2 mph - N/A   Clear
6:56 PM 66.9 °F 39.9 °F 37% 29.93 in 10.0 mi NW 5.8 mph - N/A   Clear
7:56 PM 64.0 °F 45.0 °F 50% 29.95 in 10.0 mi NNW 10.4 mph - N/A   Clear
8:56 PM 60.1 °F 44.1 °F 55% 29.97 in 10.0 mi NNE 4.6 mph - N/A   Clear
9:56 PM 61.0 °F 45.0 °F 56% 30.00 in 10.0 mi Calm Calm - N/A   Clear
10:56 PM 60.1 °F 45.0 °F 57% 30.00 in 10.0 mi Calm Calm - N/A   Clear
11:56 PM 57.0 °F 42.1 °F 57% 30.01 in 10.0 mi Calm Calm - N/A   Clear